Weather History for Blytheville Muni Airport, AR

Change the Weather History Date:

Sunday, July 14, 2013

  Actual Average Record
Temperature  
Mean Temperature 78 °F -  
Max Temperature 89 °F 94 °F 107 °F (1980)
Min Temperature 69 °F 72 °F 56 °F (1990)
Cooling Degree Days 14    
Growing Degree Days 28 (Base 50)    
Moisture  
Dew Point 67 °F    
Average Humidity 71    
Maximum Humidity 87    
Minimum Humidity 51    
Precipitation  
Precipitation 0.00 in - - ()
Sea Level Pressure  
Sea Level Pressure 30.05 in    
Wind  
Wind Speed 5 mph (ESE)    
Max Wind Speed 16 mph    
Max Gust Speed 22 mph    
Visibility 10 miles    
Events Rain    
Averages and records for this station are not official NWS values.
T = Trace of Precipitation, MM = Missing Value Source: NWS Daily Summary

Daily Weather History Graph

Daily Weather History Graph

Search for Another Location

Airport:

Trip Planner

Search our weather history database for the weather conditions in past years. The results will help you decide how hot, cold, wet, or windy it might be!

Date:

Astronomy

Jul. 14, 2013 Rise Set
Actual Time 5:53 AM CDT 8:16 PM CDT
Civil Twilight 5:24 AM CDT 8:45 PM CDT
Nautical Twilight 4:48 AM CDT 9:21 PM CDT
Astronomical Twilight 4:08 AM CDT 10:01 PM CDT
Moon 11:57 AM CDT (7/14) 11:43 PM CDT (7/14)
Length of Visible Light 15h 21m
Length of Day
14h 22m
Waxing Crescent, 35% of the Moon is Illuminated
Jul 14
Waxing Crescent
Jul 15
First Quarter
Jul 22
Full
Jul 29
Last Quarter
Aug 6
New

Hourly Weather History & Observations

Time (CDT) Temp. Heat Index Dew Point Humidity Pressure Visibility Wind Dir Wind Speed Gust Speed Precip Events Conditions
12:53 AM 70.0 °F - 62.1 °F 76% 30.00 in 10.0 mi Calm Calm - N/A   Clear
1:53 AM 70.0 °F - 62.1 °F 76% 29.99 in 10.0 mi ENE 3.5 mph - N/A   Clear
2:53 AM 69.1 °F - 64.0 °F 84% 29.99 in 10.0 mi Calm Calm - N/A   Mostly Cloudy
3:53 AM 70.0 °F - 63.0 °F 78% 29.99 in 10.0 mi ENE 3.5 mph - N/A   Scattered Clouds
4:53 AM 71.1 °F - 64.0 °F 78% 30.01 in 10.0 mi East 4.6 mph - N/A   Partly Cloudy
5:53 AM 71.1 °F - 64.0 °F 78% 30.02 in 10.0 mi ESE 4.6 mph - N/A   Partly Cloudy
6:53 AM 72.0 °F - 64.9 °F 78% 30.03 in 10.0 mi ESE 5.8 mph - N/A   Scattered Clouds
7:53 AM 73.9 °F - 66.0 °F 76% 30.04 in 10.0 mi ESE 6.9 mph - N/A   Clear
8:53 AM 75.9 °F - 66.9 °F 74% 30.07 in 10.0 mi SSE 9.2 mph - N/A   Clear
9:53 AM 80.1 °F 82.7 °F 68.0 °F 67% 30.07 in 10.0 mi SSE 8.1 mph - N/A   Clear
10:53 AM 82.9 °F 85.0 °F 66.0 °F 56% 30.08 in 10.0 mi SSE 8.1 mph - N/A   Clear
11:53 AM 86.0 °F 88.8 °F 66.9 °F 53% 30.08 in 10.0 mi ESE 5.8 mph - N/A   Mostly Cloudy
12:53 PM 87.1 °F 91.3 °F 69.1 °F 55% 30.07 in 10.0 mi East 8.1 mph - N/A   Partly Cloudy
1:53 PM 86.0 °F 88.8 °F 66.9 °F 53% 30.06 in 10.0 mi SE 8.1 mph - N/A   Clear
2:53 PM 88.0 °F 91.4 °F 68.0 °F 51% 30.04 in 10.0 mi Variable 6.9 mph - N/A   Clear
3:53 PM 87.1 °F 91.3 °F 69.1 °F 55% 30.04 in 10.0 mi East 9.2 mph - N/A   Mostly Cloudy
4:53 PM 82.9 °F 86.5 °F 69.1 °F 63% 30.06 in 10.0 mi East 16.1 mph 21.9 mph N/A   Mostly Cloudy
5:53 PM 77.0 °F - 68.0 °F 74% 30.06 in 10.0 mi ESE 9.2 mph - 0.00 in Rain Light Rain
6:53 PM 79.0 °F - 68.0 °F 69% 30.05 in 10.0 mi ESE 10.4 mph - 0.00 in   Mostly Cloudy
7:53 PM 77.0 °F - 69.1 °F 76% 30.05 in 10.0 mi East 11.5 mph - N/A   Partly Cloudy
8:53 PM 77.0 °F - 70.0 °F 79% 30.07 in 10.0 mi ESE 4.6 mph - N/A   Mostly Cloudy
9:53 PM 75.9 °F - 72.0 °F 87% 30.09 in 10.0 mi East 9.2 mph - N/A   Clear
10:53 PM 75.9 °F - 71.1 °F 85% 30.09 in 10.0 mi East 9.2 mph - N/A   Partly Cloudy
11:53 PM 75.0 °F - 71.1 °F 87% 30.09 in 10.0 mi East 4.6 mph - N/A   Clear